|   |  | Asteroid (1674) Groeneveld
					
					
					
					
						
					
					
						
							(Preview) 
						
							
								(1674) Groeneveld / HIP 42516 event on 2017 Jun 12, 00:04 UT On 2017 Jun 12 00:04 UT, the 27 km diameter asteroid (1674) Groeneveld will occult the star 39 Cancri in the constellation Cancer Read more | Blobrana | 0 |  |  | 
		
			
			
				
				
					|   |  | Asteroid 2017 LE
					
					
					
					
						
					
					
						
							(Preview) 
						
							
								The 14 - 32 metre wide asteroid 2017 LE in the constellation Sagittarius will make a close pass (5.18 LD, 0.01332 AU) travelling at 8.97 km/second, to the Earth-Moon system on the 7th June 2017 @ 01:56 UT ±00:01.  Magnitude: 18.19 V See more The Lunar Distance (LD), the distance between Earth and the Mo... | Blobrana | 0 |  |  | 
		
			
			
				
				
					|   |  | Asteroid 2017 KQ27
					
					
					
					
						
					
					
						
							(Preview) 
						
							
								Orbital elements:
2017 KQ27                                                Earth MOID = 0.0019 AU
Epoch 2017 Sept. 4.0 TT = JDT 2458000.5                 MPC
M  17.96211              (2000.0)            P               Q
n   0.27667076     Peri.   30.08759     +0.28996189     +0.95360879
a   2.3325298      Node   256.86925     -0.89380805     +0.23960064
e   0.5889091      Incl.    4.76793     -0.34209542     +0.18226851
P   3.56           H   25.6           G   0... | Blobrana | 2 |  |  | 
		
			
			
				
				
					|   |  | Asteroid 2017 KR27
					
					
					
					
						
					
					
						
							(Preview) 
						
							
								The 52 - 120 metre wide asteroid 2017 KR27 in the constellation Ursa Major will make a close pass (6.99 LD, 0.01797 AU), travelling at 12.56 km/second, to the Earth-Moon system on the 6th June 2017 @ 03:30 UT ±00:01.  Magnitude: 18.4 V See more The Lunar Distance (LD), the distance between Earth and the... | Blobrana | 0 |  |  | 
		
			
			
				
				
					|   |  | Asteroid 2017 LD
					
					
					
					
						
					
					
						
							(Preview) 
						
							
								The 7 - 16 metre wide asteroid 2017 LD in the constellation Sagittarius will make a close pass (3.00 LD, 0.00770 AU), travelling at 4.80 km/second, to the Earth-Moon system on the 5th June 2017 @ 10:29 UT ±00:01.  See more The Lunar Distance (LD), the distance between Earth and the Moon, equals 384,401... | Blobrana | 0 |  |  | 
		
			
			
				
				
					|   |  | Asteroid (8844) 1990 QR2
					
					
					
					
						
					
					
						
							(Preview) 
						
							
								(8844) 1990 QR2 / HD 182180 event on 2017 Jun 03, 20:03 UT On 2017 June 03 20:03 UT, the 14 km diameter asteroid (8844) 1990 QR2 will occult a 6.0 mag star in the constellation Sagittarius Read more | Blobrana | 0 |  |  | 
		
			
			
				
				
					|   |  | Eureka family asteroids
					
					
					
					
						
					
					
						
							(Preview) 
						
							
								Title: Is the Eureka cluster a collisional family of Mars Trojan asteroids?  Author: Apostolos A. Christou, Galin Borisov, Aldo Dell'Oro, Alberto Cellino, Stefano Bagnulo    We explore the hypothesis that the Eureka family of sub-km asteroids in the L5 region of Mars could have formed in a collision... | Blobrana | 0 |  |  | 
		
			
			
				
				
					|   |  | Asteroid 2017 CS
					
					
					
					
						
					
					
						
							(Preview) 
						
							
								Orbital elements:
2017 CS                                             PHA, Earth MOID = 0.0046 AU
Epoch 2017 Feb. 16.0 TT = JDT 2457800.5                 MPC
M 337.50670              (2000.0)            P               Q
n   0.23518488     Peri.  358.74011     -0.51314004     +0.85188804
a   2.5993401      Node   240.37737     -0.78642163     -0.51554405
e   0.6089260      Incl.    6.92140     -0.34384346     -0.09220146
P   4.19           H   19... | Blobrana | 3 |  |  | 
		
			
			
				
				
					|   |  | Asteroid (3017) Petrovic
					
					
					
					
						
					
					
						
							(Preview) 
						
							
								(3017) Petrovic / HIP 68705 event on 2017 May 26, 18:12 UT On 2017 May 26 UT, the 13 km diameter asteroid (3017) Petrovic will occult a 6.3 mag star in the constellation Virgo Read more | Blobrana | 0 |  |  | 
		
			
			
				
				
					|   |  | Asteroid 2017 JM2
					
					
					
					
						
					
					
						
							(Preview) 
						
							
								The 39 - 86 metre wide asteroid 2017 JM2 will make a close pass (5.09 LD, 0.01308 AU), travelling at 14.71 km/second, to the Earth-Moon system on the 15th May 2017 @ 03:49 UT ±00:01.  See more The Lunar Distance (LD), the distance between Earth and the Moon, equals 384,401 km, (or 0.00256 AU). | Blobrana | 0 |  |  | 
		
			
			
				
				
					|   |  | Asteroid 2017 JA2
					
					
					
					
						
					
					
						
							(Preview) 
						
							
								Orbital elements:
2017 JA2                                                 Earth MOID = 0.0007 AU
Epoch 2017 Feb. 16.0 TT = JDT 2457800.5                 MPC
M 251.76235              (2000.0)            P               Q
n   0.75506104     Peri.  253.22687     +0.55332534     +0.82282975
a   1.1943951      Node    51.08681     -0.68669684     +0.53863898
e   0.2879599      Incl.    9.58386     -0.47146423     +0.18116085
P   1.31           H   24.7           G   0... | Blobrana | 1 |  |  | 
		
			
			
				
				
					|   |  | Asteroid (456677) Yepeijian
					
					
					
					
						
					
					
						
							(Preview) 
						
							
								Asteroid (456677) Yepeijian = 2007 RM119  Read more | Blobrana | 1 |  |  | 
		
			
			
				
				
					|   |  | Asteroid 2017 HY50
					
					
					
					
						
					
					
						
							(Preview) 
						
							
								Orbital elements:
2017 HY50                                           PHA, Earth MOID = 0.0424 AU
Epoch 2017 Feb. 16.0 TT = JDT 2457800.5                 MPC
M 322.95554              (2000.0)            P               Q
n   0.22814454     Peri.  233.13509     +0.61160618     +0.72578594
a   2.6525444      Node    77.65806     -0.58363424     +0.68262866
e   0.6575446      Incl.   18.80613     -0.53414319     +0.08516388
P   4.32           H... | Blobrana | 0 |  |  | 
		
			
			
				
				
					|   |  | Asteroid 2010 VT11
					
					
					
					
						
					
					
						
							(Preview) 
						
							
								Orbital elements:
2010 VT11                                           PHA, Earth MOID = 0.0121 AU
Epoch 2017 Feb. 16.0 TT = JDT 2457800.5                 MPC
M 274.33903              (2000.0)            P               Q
n   0.42390552     Peri.   65.66410     +0.70804486     +0.70500672
a   1.7550521      Node   249.47668     -0.66255062     +0.64338993
e   0.6112685      Incl.    2.47682     -0.24433411     +0.29835370
P   2.33           H   2... | Blobrana | 0 |  |  | 
		
			
			
				
				
					|   |  | Asteroid (2235) Vittore
					
					
					
					
						
					
					
						
							(Preview) 
						
							
								Asteroid (2235) Vittore (A924 GA) is a 44.45 km wide main belt asteroid discovered by German astronomer Karl Wilhelm Reinmuth on April 5, 1924 from the Heidelberg-Königstuhl Observatory , Germany.  Vittore was initially designated as A924 GA. It was rediscovered in 1979 by the San Vittore observa... | Blobrana | 1 |  |  |